• In Hungary
  • List of Countries
  • For 7 days
  • Water Temperature
  • Satellite Maps
  • Weather Map
  • News
  • Weather Widgets
  • user-avatar
    Login

    Hourly Weather Sofia

    Today, 18 February, Sunday

    Time Temperature Precipitation Wind Pressure Humidity
    00:00 +3°C° 0 mm 2 mps 713 mmHg 80%
    01:00 +3°C° 0 mm 2 mps 712 mmHg 80%
    02:00 +2°C° 0 mm 2 mps 712 mmHg 81%
    03:00 +2°C° 0 mm 2 mps 712 mmHg 81%
    04:00 +2°C° 0 mm 2 mps 712 mmHg 82%
    05:00 +2°C° 0 mm 2 mps 712 mmHg 82%
    06:00 +3°C° 0 mm 1 mps 712 mmHg 82%
    07:00 +3°C° 0 mm 1 mps 712 mmHg 82%
    08:00 +4°C° 0 mm 1 mps 712 mmHg 81%
    09:00 +5°C° 0 mm 1 mps 712 mmHg 77%
    10:00 +7°C° 0 mm 1 mps 712 mmHg 72%
    11:00 +9°C° 0 mm 1 mps 712 mmHg 67%
    12:00 +9°C° 0 mm 1 mps 712 mmHg 66%
    13:00 +10°C° 0 mm 1 mps 712 mmHg 65%
    14:00 +11°C° 0 mm 1 mps 711 mmHg 63%
    15:00 +10°C° 0 mm 1 mps 711 mmHg 67%
    16:00 +9°C° 0 mm 1 mps 711 mmHg 71%
    17:00 +9°C° 0 mm 1 mps 711 mmHg 75%
    18:00 +8°C° 0 mm 1 mps 711 mmHg 79%
    19:00 +7°C° 0 mm 1 mps 711 mmHg 83%
    20:00 +6°C° 0 mm 1 mps 711 mmHg 87%
    21:00 +5°C° 0.1 mm 1 mps 711 mmHg 88%
    22:00 +5°C° 0.1 mm 1 mps 711 mmHg 89%
    23:00 +5°C° 0.1 mm 1 mps 711 mmHg 90%

    Tomorrow, 19 February, Monday

    Time Temperature Precipitation Wind Pressure Humidity
    00:00 +5°C° 0.1 mm 1 mps 711 mmHg 91%
    01:00 +5°C° 0.1 mm 1 mps 711 mmHg 91%
    02:00 +4°C° 0.1 mm 1 mps 711 mmHg 92%
    03:00 +4°C° 0.3 mm 1 mps 711 mmHg 92%
    04:00 +4°C° 0.3 mm 1 mps 711 mmHg 93%
    05:00 +4°C° 0.3 mm 1 mps 711 mmHg 93%
    06:00 +4°C° 0.3 mm 1 mps 711 mmHg 93%
    07:00 +4°C° 0.3 mm 1 mps 711 mmHg 93%
    08:00 +4°C° 0.3 mm 1 mps 711 mmHg 93%
    09:00 +4°C° 0.2 mm 1 mps 711 mmHg 90%
    10:00 +5°C° 0.2 mm 1 mps 711 mmHg 86%
    11:00 +6°C° 0.2 mm 1 mps 711 mmHg 83%
    12:00 +5°C° 0.1 mm 2 mps 711 mmHg 82%
    13:00 +5°C° 0.1 mm 2 mps 711 mmHg 81%
    14:00 +6°C° 0.1 mm 2 mps 711 mmHg 80%
    15:00 +5°C° 0.1 mm 2 mps 711 mmHg 81%
    16:00 +5°C° 0.1 mm 2 mps 710 mmHg 83%
    17:00 +5°C° 0.1 mm 2 mps 710 mmHg 84%
    18:00 +4°C° 0.1 mm 2 mps 710 mmHg 86%
    19:00 +3°C° 0.1 mm 2 mps 711 mmHg 89%
    20:00 +3°C° 0.1 mm 2 mps 711 mmHg 91%
    21:00 +3°C° 0.1 mm 2 mps 711 mmHg 91%
    22:00 +2°C° 0.1 mm 2 mps 711 mmHg 91%
    23:00 +2°C° 0.1 mm 2 mps 711 mmHg 91%

    Day after tomorrow, 20 February, Tuesday

    Time Temperature Precipitation Wind Pressure Humidity
    00:00 +2°C° 0.1 mm 2 mps 711 mmHg 91%
    01:00 +2°C° 0.1 mm 2 mps 710 mmHg 91%
    02:00 +2°C° 0.1 mm 2 mps 710 mmHg 91%
    03:00 +1°C° 0.2 mm 2 mps 710 mmHg 91%
    04:00 +1°C° 0.2 mm 2 mps 710 mmHg 91%
    05:00 +1°C° 0.2 mm 2 mps 709 mmHg 91%
    06:00 +1°C° 0.2 mm 2 mps 709 mmHg 90%
    07:00 +1°C° 0.2 mm 2 mps 709 mmHg 90%
    08:00 +1°C° 0.2 mm 2 mps 709 mmHg 90%
    09:00 +2°C° 0 mm 2 mps 710 mmHg 86%
    10:00 +3°C° 0 mm 2 mps 710 mmHg 83%
    11:00 +3°C° 0 mm 3 mps 710 mmHg 80%
    12:00 +4°C° 0 mm 3 mps 709 mmHg 78%
    13:00 +4°C° 0 mm 3 mps 709 mmHg 77%
    14:00 +5°C° 0 mm 3 mps 708 mmHg 75%
    15:00 +5°C° 0.2 mm 3 mps 708 mmHg 77%
    16:00 +5°C° 0.2 mm 2 mps 707 mmHg 79%
    17:00 +5°C° 0.2 mm 2 mps 707 mmHg 81%
    18:00 +4°C° 0.2 mm 2 mps 707 mmHg 83%
    19:00 +4°C° 0.2 mm 2 mps 707 mmHg 86%
    20:00 +3°C° 0.2 mm 2 mps 707 mmHg 88%
    21:00 +3°C° 0 mm 2 mps 707 mmHg 88%
    22:00 +3°C° 0 mm 2 mps 707 mmHg 89%
    23:00 +3°C° 0 mm 2 mps 707 mmHg 89%

    21 February, Wednesday

    Time Temperature Precipitation Wind Pressure Humidity
    00:00 +3°C° 0 mm 2 mps 706 mmHg 90%
    01:00 +2°C° 0 mm 2 mps 706 mmHg 90%
    02:00 +2°C° 0 mm 2 mps 706 mmHg 91%
    03:00 +2°C° 0 mm 2 mps 706 mmHg 91%
    04:00 +2°C° 0 mm 2 mps 706 mmHg 91%
    05:00 +2°C° 0 mm 2 mps 705 mmHg 91%
    06:00 +2°C° 0 mm 2 mps 705 mmHg 90%
    07:00 +2°C° 0 mm 2 mps 705 mmHg 89%
    08:00 +2°C° 0 mm 2 mps 706 mmHg 89%
    09:00 +3°C° 0 mm 2 mps 706 mmHg 85%
    10:00 +4°C° 0 mm 2 mps 706 mmHg 81%
    11:00 +6°C° 0 mm 2 mps 706 mmHg 77%
    12:00 +6°C° 0 mm 2 mps 705 mmHg 76%
    13:00 +7°C° 0 mm 2 mps 705 mmHg 74%
    14:00 +8°C° 0 mm 2 mps 704 mmHg 73%
    15:00 +8°C° 0 mm 2 mps 704 mmHg 74%
    16:00 +7°C° 0 mm 2 mps 704 mmHg 76%
    17:00 +7°C° 0 mm 2 mps 704 mmHg 78%
    18:00 +6°C° 0 mm 2 mps 704 mmHg 81%
    19:00 +5°C° 0 mm 2 mps 704 mmHg 85%
    20:00 +4°C° 0 mm 2 mps 704 mmHg 88%
    21:00 +4°C° 0 mm 2 mps 704 mmHg 89%
    22:00 +3°C° 0 mm 2 mps 704 mmHg 90%
    23:00 +3°C° 0 mm 2 mps 704 mmHg 91%

    22 February, Thursday

    Time Temperature Precipitation Wind Pressure Humidity
    00:00 +3°C° 0 mm 2 mps 704 mmHg 91%
    01:00 +3°C° 0 mm 2 mps 704 mmHg 91%
    02:00 +4°C° 0 mm 1 mps 704 mmHg 92%
    03:00 +4°C° 0 mm 1 mps 703 mmHg 92%
    04:00 +4°C° 0 mm 1 mps 703 mmHg 92%
    05:00 +4°C° 0 mm 1 mps 703 mmHg 93%
    06:00 +4°C° 0 mm 1 mps 703 mmHg 93%
    07:00 +4°C° 0 mm 1 mps 703 mmHg 92%
    08:00 +4°C° 0 mm 1 mps 703 mmHg 92%
    09:00 +5°C° 0 mm 1 mps 703 mmHg 88%
    10:00 +6°C° 0 mm 2 mps 703 mmHg 85%
    11:00 +7°C° 0 mm 2 mps 703 mmHg 81%
    12:00 +8°C° 0 mm 2 mps 703 mmHg 79%
    13:00 +8°C° 0 mm 2 mps 703 mmHg 77%
    14:00 +9°C° 0 mm 2 mps 703 mmHg 76%
    15:00 +8°C° 0.2 mm 2 mps 703 mmHg 78%
    16:00 +8°C° 0.2 mm 2 mps 703 mmHg 81%
    17:00 +8°C° 0.2 mm 1 mps 703 mmHg 84%
    18:00 +8°C° 0.5 mm 1 mps 703 mmHg 86%
    19:00 +7°C° 0.5 mm 1 mps 703 mmHg 89%
    20:00 +7°C° 0.5 mm 1 mps 703 mmHg 92%
    21:00 +6°C° 0.3 mm 1 mps 703 mmHg 93%
    22:00 +6°C° 0.3 mm 1 mps 703 mmHg 93%
    23:00 +6°C° 0.3 mm 1 mps 703 mmHg 94%

    23 February, Friday

    Time Temperature Precipitation Wind Pressure Humidity
    00:00 +6°C° 0.1 mm 1 mps 703 mmHg 94%
    01:00 +6°C° 0.1 mm 1 mps 703 mmHg 95%
    02:00 +5°C° 0.1 mm 1 mps 703 mmHg 95%
    03:00 +5°C° 0 mm 1 mps 703 mmHg 95%
    04:00 +5°C° 0 mm 1 mps 703 mmHg 95%
    05:00 +5°C° 0 mm 1 mps 703 mmHg 95%
    06:00 +5°C° 0 mm 1 mps 703 mmHg 95%
    07:00 +5°C° 0 mm 1 mps 703 mmHg 94%
    08:00 +5°C° 0 mm 1 mps 704 mmHg 94%
    09:00 +6°C° 0 mm 1 mps 704 mmHg 90%
    10:00 +7°C° 0 mm 1 mps 704 mmHg 86%
    11:00 +7°C° 0 mm 1 mps 704 mmHg 81%
    12:00 +8°C° 0.1 mm 1 mps 704 mmHg 80%
    13:00 +8°C° 0.1 mm 1 mps 703 mmHg 79%
    14:00 +8°C° 0.1 mm 1 mps 703 mmHg 77%
    15:00 +8°C° 0.2 mm 1 mps 703 mmHg 79%
    16:00 +8°C° 0.2 mm 1 mps 703 mmHg 80%
    17:00 +7°C° 0.2 mm 1 mps 703 mmHg 82%
    18:00 +7°C° 0.1 mm 1 mps 703 mmHg 85%
    19:00 +6°C° 0.1 mm 1 mps 703 mmHg 88%
    20:00 +5°C° 0.1 mm 1 mps 703 mmHg 91%
    21:00 +5°C° 0.1 mm 1 mps 703 mmHg 92%
    22:00 +5°C° 0.1 mm 1 mps 703 mmHg 92%
    23:00 +5°C° 0.1 mm 1 mps 703 mmHg 92%
    Show more